sat.trackr.live / text

‹ back to catalog

STARLINK-32154

NORAD 60276 · 2024-131X

PAYLOAD ACTIVE UNKNOWN

§ Identity

Operator
Country
US
Launch date
2024-07-27
Launch site
AFETR
Launch vehicle
Mass (kg)
RCS (m²)

Purposes: comms

External: N2YO · Heavens-Above · Gunter

§ Orbital elements

Epoch: 2026-09-21T14:42:41.517792Z

Period
93.85 min
Inclination
53.1585°
Eccentricity
0.0001525
Mean motion
15.34383849 rev/d
Perigee alt
461.7 km
Apogee alt
463.8 km
Semi-major
6,840.9 km
B*
-4.2093e-6
RAAN
220.3761°
Arg perigee
87.4973°
Mean anomaly
272.6204°
Rev number
12,174

§ Raw data

STARLINK-321541 60276U 24131X   26264.61298053 -.00000519  00000+0 -42093-5 0  99952 60276  53.1585 220.3761 0001525  87.4973 272.6204 15.34383849121748

JSON: /api/v1/satellites/60276 · /tle

For live sub-satellite position, see the globe view (requires WebGL).

§ Visibility from observer

Set your observer location to see the next 7 days of passes ≥ 10°. The values pass through the URL so the page stays shareable.

No JS? Fill the form by hand. The geolocation button needs JavaScript.